Home > Weather > Bourges > Past weeks

Flag for France Past Weather in Bourges, Centre-Val de Loire, France — Yesterday and Last 2 Weeks

Now
67 °F

Passing clouds.


Feels Like: 67 °F
Forecast: 65 / 98 °F
Wind: 2 mph from Southeast

Location: Bourges

Current Time: Aug 26, 2016 at 9:05:20 AM

Latest Report: Aug 26, 2016 at 8:00 AM


Visibility: 22 mi

Pressure: 30.02 "Hg

Humidity: 71%

Dew Point: 57 °F

Location of BourgesLocation

Past Weather in Bourges — Graph

°F

Bourges Temperature Yesterday

Maximum temperature yesterday: 96 °F (at 6:00 PM)
Minimum temperature yesterday: 64 °F (at 7:00 AM)
Average temperature yesterday: 81 °F

High & Low Weather Summary for the Past Weeks

 TemperatureHumidityPressure
High97 °F (Aug 24, 7:00 PM)94% (Aug 20, 7:00 AM)30.37 "Hg (Aug 20, 7:00 AM)
Low49 °F (Aug 11, 8:00 AM)24% (Aug 25, 6:00 PM)29.79 "Hg (Aug 17, 6:00 PM)
Average72 °F57%30.07 "Hg
* Reported Aug 11 8:00 AM — Aug 26 8:00 AM, Bourges, Weather by CustomWeather, © 2016

Note: Actual official high and low records may vary slightly from our data, if they occured in-between our weather recording intervals... More about our weather records

Advertising

Bourges Weather History for the Previous 24 Hours

Scroll right to see more
 ConditionsComfort  
Time TempWeatherWind HumidityBarometerVisibility
8:00 AM
Fri, Aug 26
67 °FPassing clouds.2 mph71%30.02 "Hg22 mi
7:00 AM64 °FPassing clouds.3 mph77%30.00 "Hg22 mi
6:00 AM66 °FClear.3 mph72%29.99 "Hg16 mi
5:00 AM67 °FMild.5 mph72%29.98 "Hg12 mi
4:00 AM68 °FMild.2 mph67%29.98 "Hg12 mi
3:00 AM70 °FMild.5 mph67%29.96 "Hg12 mi
2:00 AM72 °FMild.No wind64%29.96 "Hg12 mi
1:00 AM74 °FMild.2 mph60%29.96 "Hg12 mi
12:00 AM74 °FMild.3 mph56%29.95 "Hg12 mi
11:00 PM
Thu, Aug 25
79 °FWarm.3 mph52%29.94 "Hg12 mi
10:00 PM81 °FWarm.3 mph47%29.93 "Hg12 mi
9:00 PM86 °FPleasantly warm.5 mph40%29.92 "Hg12 mi
8:00 PM92 °FHot.3 mph31%29.91 "Hg12 mi
7:00 PM95 °FExtremely hot.3 mph25%29.90 "Hg12 mi
6:00 PM96 °FExtremely hot.3 mph24%29.91 "Hg12 mi
5:00 PM96 °FSunny.6 mph25%29.92 "Hg28 mi
4:00 PM96 °FSunny.8 mph25%29.93 "Hg28 mi
3:00 PM94 °FSunny.6 mph27%29.95 "Hg28 mi
2:00 PM92 °FSunny.8 mph29%29.96 "Hg28 mi
1:00 PM91 °FSunny.7 mph33%29.97 "Hg25 mi
12:00 PM87 °FSunny.6 mph36%29.98 "Hg25 mi
11:00 AM83 °FSunny.6 mph43%30.00 "Hg25 mi
10:00 AM78 °FWarm.2 mph53%29.99 "Hg12 mi
9:00 AM72 °FSunny.2 mph68%30.01 "Hg22 mi
Weather by CustomWeather, © 2016

See weather overviewHow to use our weather pages